[[{"header":{"parameterUnit":"m.s-1","parameterCategory":1,"la1":30.2991,"la2":30.254,"lo1":-89.0895,"lo2":-89.0444,"dy":0.0017,"dx":0.0017,"nx":28,"ny":28,"refTime":"2023-10-23T03:00:00:Z","depth":0,"parameterNumber":2,"parameterNumberName":"U-component_of_WINDS"},"data":[0,0,0,0,0,0,0,0,0,0,0,0,0,0,0,0,0,0,0,0,0,0,0,0,0,0,0,0,0,0,0,0,0,0,0,0,0,0,0,0,0,0,0,0,0,0,0,0,0,0,0,0,0,0,0,0,0,0,-2.5212,-2.5212,0,-2.5211,-2.5211,-2.5211,-2.5132,-2.513,-2.5128,-2.5126,-2.5125,-2.5127,-2.5129,0,0,0,0,0,0,0,0,0,0,0,0,0,-2.5148,-2.515,-2.5212,-2.5212,-2.5212,-2.5211,-2.5211,-2.5211,-2.5132,-2.513,-2.5127,-2.5125,-2.5125,-2.5127,-2.5129,0,0,0,0,0,0,0,0,0,0,0,0,0,-2.5164,-2.515,-2.5212,-2.5173,-2.5169,-2.5211,-2.5211,-2.5211,-2.5133,-2.513,-2.5126,-2.5123,-2.5124,-2.5127,-2.513,-2.521,0,0,-2.5138,-2.514,0,0,0,0,0,0,0,0,-2.5164,-2.5167,-2.5179,-2.5176,-2.5172,-2.5168,-2.5188,-2.5211,-2.5133,-2.5147,-2.5126,-2.5122,-2.5142,-2.5143,-2.515,-2.521,-2.521,-2.5139,-2.514,-2.5142,-2.5143,0,0,0,0,0,0,0,-2.5163,-2.5167,-2.5212,-2.5179,-2.5175,-2.5156,-2.5155,-2.5192,-2.5162,-2.5145,-2.5139,-2.514,-2.514,-2.5148,-2.515,-2.521,-2.5139,-2.5141,-2.5143,-2.5144,-2.5337,-2.534,0,0,0,0,0,0,-2.5167,-2.5166,-2.5212,-2.5212,-2.516,-2.5159,-2.5158,-2.5173,-2.5161,-2.5157,-2.5143,-2.5137,-2.5144,-2.5146,-2.5149,-2.5243,-2.5142,-2.5144,-2.5146,-2.5334,-2.5338,-2.5342,0,0,0,0,0,0,-2.5166,-2.5172,-2.5212,-2.5187,-2.5191,-2.5164,-2.5181,-2.5174,-2.5182,-2.516,-2.5154,-2.5156,-2.5142,-2.5145,-2.5196,-2.5242,-2.5146,-2.5148,-2.533,-2.5335,-2.534,-2.5431,0,0,0,0,0,0,-2.5164,-2.5172,-2.5201,-2.5189,-2.5193,-2.5258,-2.5184,-2.5176,-2.5187,-2.5179,-2.5171,-2.5166,-2.514,-2.5192,-2.5199,-2.5244,-2.5151,-2.5325,-2.5332,-2.5338,-2.5423,-2.5438,-2.5451,0,0,0,0,0,-2.5162,-2.5226,-2.5203,-2.5209,-2.5229,-2.5261,-2.5263,-2.5231,-2.5191,-2.5221,-2.5207,-2.5167,-2.5236,-2.5198,-2.5205,-2.5251,-2.5322,-2.533,-2.5338,-2.5417,-2.5435,-2.545,0,0,0,0,0,0,-2.5244,-2.5224,-2.5198,-2.526,-2.5263,-2.5247,-2.5283,-2.5251,-2.5265,-2.5256,-2.5216,-2.5215,-2.5272,-2.5267,-2.5225,-2.533,-2.5272,-2.5282,-2.533,-2.5347,-2.5361,-2.536,-2.5153,0,0,0,0,0,-2.527,-2.5297,-2.5278,-2.5335,-2.5338,-2.5311,-2.5323,-2.5299,-2.53,-2.5301,-2.529,-2.5294,-2.5316,-2.5332,-2.5351,-2.5423,-2.542,-2.5459,-2.5473,-2.5484,-2.5492,-2.5531,-2.5548,-2.5367,-2.5367,-2.5366,0,0,-2.5322,-2.5315,-2.5334,-2.5351,-2.535,-2.538,-2.5312,-2.5346,-2.5368,-2.5306,-2.5352,-2.5346,-2.5347,-2.5409,-2.5436,-2.5406,-2.5542,-2.5494,-2.5503,-2.5505,-2.5541,-2.5558,-2.5573,-2.5372,-2.5371,-2.537,0,0,-2.5433,-2.543,-2.5477,-2.5479,-2.5479,-2.5461,-2.5473,-2.5463,-2.5456,-2.5503,-2.5457,-2.5483,-2.5523,-2.5526,-2.5532,-2.5648,-2.5612,-2.5656,-2.5727,-2.5765,-2.5779,-2.5792,-2.5833,-2.5849,-2.5664,-2.5665,-2.5665,0,-2.5498,-2.554,-2.5506,-2.5543,-2.5552,-2.5499,-2.5547,-2.555,-2.5557,-2.5565,-2.5532,-2.5582,-2.5579,-2.5641,-2.567,-2.5677,-2.569,-2.5655,-2.578,-2.5792,-2.5803,-2.5842,-2.5858,-2.567,-2.5669,-2.5669,-2.5668,0,-2.5621,-2.5651,-2.569,-2.5698,-2.5712,-2.5754,-2.5727,-2.5746,-2.5721,-2.5707,-2.5756,-2.5752,-2.577,-2.5783,-2.5759,-2.5843,-2.5825,-2.5787,-2.5728,-2.5827,-2.5863,-2.5877,-2.5677,-2.5676,-2.5674,-2.5673,0,0,-2.578,-2.5771,-2.5785,-2.5789,-2.5787,-2.581,-2.5851,-2.5869,-2.5886,-2.5894,-2.5927,-2.5964,-2.593,-2.5938,-2.5914,-2.5947,-2.604,-2.5906,-2.5905,-2.593,-2.6133,-2.616,-2.6178,-2.6017,-2.602,-2.6022,-2.6133,0,-2.5887,-2.5956,-2.5927,-2.5999,-2.6027,-2.5979,-2.6015,-2.6018,-2.6007,-2.603,-2.6018,-2.6045,-2.5997,-2.6002,-2.6034,-2.6022,-2.608,-2.6014,-2.6048,-2.605,-2.6048,-2.6197,-2.6225,-2.633,-2.6146,-2.6149,-2.6151,0,-2.602,-2.6033,-2.6108,-2.6102,-2.6113,-2.6146,-2.6161,-2.6184,-2.6187,-2.6177,-2.6188,-2.6157,-2.6198,-2.6142,-2.6199,-2.6154,-2.6167,-2.6164,-2.6168,-2.6168,-2.6105,-2.6201,-2.6362,-2.6378,-2.6172,-2.6171,-2.6169,0,-2.6128,-2.6165,-2.6215,-2.622,-2.6215,-2.6239,-2.6238,-2.6239,-2.6252,-2.6266,-2.6274,-2.6293,-2.6304,-2.6319,-2.6295,-2.6256,-2.6356,-2.6297,-2.6349,-2.635,-2.637,-2.6369,-2.6536,-2.6381,-2.6381,-2.6381,-2.638,0,-2.6249,-2.6297,-2.6264,-2.6294,-2.6347,-2.6315,-2.6368,-2.6362,-2.6364,-2.6393,-2.6353,-2.6381,-2.6348,-2.6374,-2.6356,-2.6406,-2.6411,-2.6404,-2.6399,-2.6407,-2.6408,-2.6414,-2.6405,-2.6385,-2.6384,-2.6383,-2.6382,0,-2.6378,-2.6358,-2.6409,-2.6401,-2.64,-2.6439,-2.6432,-2.6461,-2.6448,-2.6486,-2.6493,-2.6474,-2.6502,-2.648,-2.6508,-2.6496,-2.6562,-2.6547,-2.6561,-2.6556,-2.6609,-2.6604,-2.6784,-2.6806,-2.6639,-2.664,-2.6642,0,-2.6456,-2.6491,-2.6488,-2.6504,-2.6506,-2.6534,-2.6547,-2.6519,-2.6535,-2.6543,-2.6571,-2.6597,-2.6615,-2.6663,-2.6652,-2.6674,-2.6658,-2.672,-2.6661,-2.6669,-2.6658,-2.6656,-2.6659,-2.6731,-2.6733,-2.6735,-2.6736,0,-2.6596,-2.6585,-2.6606,-2.6625,-2.6643,-2.6656,-2.6666,-2.6682,-2.6653,-2.6674,-2.6703,-2.6718,-2.6747,-2.6773,-2.6791,-2.6791,-2.6759,-2.6755,-2.6768,-2.6776,-2.6782,-2.6779,-2.6592,-2.675,-2.6749,-2.6748,-2.6747,-2.6746,-2.6701,-2.6731,-2.6733,-2.6759,-2.6764,-2.6775,-2.6802,-2.6793,-2.6817,-2.6838,-2.6821,-2.6856,-2.6861,-2.6882,-2.6886,-2.6914,-2.6888,-2.6907,-2.6912,-2.6917,-2.6924,-2.678,-2.6917,-2.6917,-2.6916,-2.6916,-2.6916,0,-2.6838,-2.6838,-2.6862,-2.6878,-2.6899,-2.6868,-2.6879,-2.6898,-2.6929,-2.6937,-2.6956,-2.6991,-2.7016,-2.7009,-2.7032,-2.7055,-2.7042,-2.7062,-2.7059,-2.706,-2.6946,-2.6932,-2.7073,-2.7073,-2.7073,-2.7073,-2.7073,-2.7073,-2.6912,-2.6961,-2.6951,-2.7003,-2.7003,-2.7036,-2.7045,-2.7056,-2.7062,-2.7102,-2.7123,-2.7118,-2.712,-2.7143,-2.7166,-2.7163,-2.7173,-2.7199,-2.7191,-2.7084,-2.7068,-2.7053,-2.704,-2.7202,-2.7202,-2.7303,-2.7304,-2.7305]},{"header":{"parameterUnit":"m.s-1","parameterCategory":1,"la1":30.2991,"la2":30.254,"lo1":-89.0895,"lo2":-89.0444,"dy":0.0017,"dx":0.0017,"nx":28,"ny":28,"refTime":"2023-10-23T03:00:00:Z","depth":0,"parameterNumber":3,"parameterNumberName":"V-component_of_WINDS"},"data":[0,0,0,0,0,0,0,0,0,0,0,0,0,0,0,0,0,0,0,0,0,0,0,0,0,0,0,0,0,0,0,0,0,0,0,0,0,0,0,0,0,0,0,0,0,0,0,0,0,0,0,0,0,0,0,0,0,0,0.7968,0.7968,0,0.8005,0.8005,0.8006,0.8046,0.8046,0.8047,0.8047,0.8083,0.8083,0.8084,0,0,0,0,0,0,0,0,0,0,0,0,0,0.793,0.7931,0.7968,0.7968,0.7969,0.8005,0.8005,0.8006,0.8045,0.8046,0.8047,0.8047,0.8083,0.8083,0.8084,0,0,0,0,0,0,0,0,0,0,0,0,0,0.7955,0.7931,0.7968,0.7993,0.7995,0.8005,0.8005,0.8006,0.8045,0.8046,0.8047,0.8048,0.8083,0.8083,0.8084,0.8071,0,0,0.8086,0.8086,0,0,0,0,0,0,0,0,0.7953,0.7956,0.7989,0.7991,0.7994,0.8022,0.8005,0.8028,0.8045,0.8026,0.8047,0.8048,0.8062,0.8064,0.8069,0.8072,0.8074,0.8086,0.8086,0.8087,0.8087,0,0,0,0,0,0,0,0.7952,0.7955,0.7982,0.7989,0.7992,0.8002,0.8006,0.801,0.8039,0.8028,0.8031,0.8035,0.8063,0.8068,0.807,0.8075,0.8086,0.8086,0.8087,0.8087,0.807,0.807,0,0,0,0,0,0,0.7946,0.7953,0.7981,0.7984,0.7975,0.8002,0.8007,0.8012,0.8039,0.8044,0.8034,0.8037,0.8067,0.8069,0.8072,0.8059,0.8087,0.8087,0.8087,0.8071,0.807,0.8069,0,0,0,0,0,0,0.7945,0.7948,0.798,0.7969,0.7974,0.8002,0.8007,0.8012,0.8017,0.8044,0.8049,0.8034,0.8068,0.8071,0.8071,0.806,0.8087,0.8088,0.8072,0.8071,0.807,0.8032,0,0,0,0,0,0,0.7944,0.7948,0.7943,0.7969,0.7974,0.7979,0.8006,0.8012,0.8019,0.8022,0.8045,0.8049,0.8069,0.807,0.8072,0.8062,0.8088,0.8073,0.8072,0.807,0.8034,0.803,0.8026,0,0,0,0,0,0.7943,0.793,0.7943,0.7946,0.7969,0.7978,0.7981,0.8004,0.8018,0.8013,0.803,0.8049,0.8062,0.807,0.8072,0.8062,0.8074,0.8072,0.807,0.8036,0.8031,0.8026,0,0,0,0,0,0,0.7901,0.7934,0.7948,0.7944,0.7958,0.7985,0.7979,0.7997,0.8007,0.801,0.8038,0.8042,0.804,0.8051,0.806,0.8052,0.8071,0.8069,0.8044,0.8039,0.8034,0.8031,0.8089,0,0,0,0,0,0.7892,0.7897,0.7925,0.7918,0.7925,0.7951,0.7956,0.7973,0.7988,0.7994,0.8011,0.8025,0.8032,0.8036,0.8044,0.8037,0.8042,0.8031,0.8027,0.8023,0.8021,0.8019,0.8014,0.8063,0.8063,0.8063,0,0,0.7872,0.789,0.7891,0.7911,0.7924,0.7928,0.7956,0.7959,0.7962,0.7994,0.7996,0.8009,0.8026,0.8023,0.8022,0.8032,0.8009,0.8021,0.8018,0.8018,0.8017,0.8012,0.8008,0.8062,0.8062,0.8062,0,0,0.7838,0.7852,0.7849,0.7862,0.7882,0.79,0.7899,0.7924,0.7934,0.7936,0.7961,0.7965,0.7977,0.7989,0.7996,0.7969,0.7987,0.7971,0.7948,0.7945,0.7941,0.7938,0.7928,0.7925,0.7969,0.7969,0.7969,0,0.781,0.7818,0.7845,0.7847,0.7855,0.7886,0.7882,0.7894,0.7914,0.7919,0.7931,0.7947,0.7961,0.7961,0.7955,0.796,0.796,0.7968,0.794,0.7937,0.7934,0.7925,0.7922,0.7967,0.7967,0.7968,0.7968,0,0.7783,0.7788,0.7783,0.7804,0.7812,0.7811,0.7838,0.7842,0.7859,0.7876,0.7878,0.7896,0.7909,0.7911,0.7926,0.7914,0.7919,0.7935,0.7954,0.7927,0.7919,0.7916,0.7964,0.7965,0.7966,0.7966,0,0,0.7722,0.776,0.7757,0.7768,0.7793,0.7797,0.7799,0.7812,0.7816,0.783,0.7831,0.7842,0.7857,0.7866,0.7883,0.7881,0.7859,0.7898,0.7898,0.7889,0.7846,0.7834,0.7829,0.7872,0.7871,0.7871,0.7845,0,0.7692,0.7696,0.7721,0.7719,0.7724,0.7755,0.7756,0.7771,0.7788,0.7795,0.7812,0.7819,0.7839,0.7844,0.7844,0.7862,0.7851,0.7864,0.7873,0.7873,0.7867,0.7825,0.7812,0.7786,0.7842,0.7841,0.7841,0,0.7656,0.767,0.7668,0.7695,0.7698,0.7699,0.7714,0.7721,0.7739,0.7751,0.7762,0.7782,0.7786,0.7805,0.781,0.7818,0.7824,0.7833,0.7833,0.7834,0.7854,0.7824,0.7779,0.7774,0.7836,0.7837,0.7837,0,0.7612,0.763,0.7631,0.7639,0.767,0.767,0.7683,0.7703,0.771,0.7724,0.7729,0.7742,0.7749,0.7759,0.7782,0.7794,0.7785,0.7806,0.7794,0.7794,0.779,0.7789,0.7744,0.7794,0.7794,0.7794,0.7795,0,0.7575,0.7572,0.7612,0.7612,0.7611,0.764,0.7638,0.7653,0.7671,0.7675,0.7703,0.7706,0.7738,0.7745,0.7763,0.7765,0.7768,0.7777,0.7782,0.7775,0.7773,0.7777,0.778,0.7794,0.7794,0.7794,0.7794,0,0.7524,0.755,0.7554,0.7584,0.7592,0.7589,0.7615,0.7617,0.7636,0.7641,0.7644,0.7673,0.7683,0.7708,0.7724,0.7737,0.7733,0.7742,0.7726,0.7729,0.7716,0.7717,0.7671,0.7667,0.772,0.772,0.7719,0,0.7498,0.7497,0.7528,0.7534,0.7546,0.7554,0.7562,0.7591,0.7599,0.7621,0.762,0.7633,0.7644,0.7659,0.7681,0.7694,0.7703,0.7686,0.7705,0.7698,0.7703,0.7702,0.7702,0.7681,0.7681,0.768,0.768,0,0.745,0.7463,0.7474,0.749,0.7499,0.7513,0.7528,0.7531,0.7564,0.7571,0.7582,0.7591,0.7609,0.762,0.7637,0.765,0.767,0.7674,0.7672,0.7664,0.7654,0.7659,0.7714,0.7674,0.7675,0.7675,0.7676,0.7676,0.7411,0.7412,0.7434,0.7445,0.746,0.7474,0.7478,0.7498,0.7508,0.7526,0.7543,0.7552,0.7572,0.7597,0.7609,0.7617,0.7627,0.7624,0.7623,0.7622,0.7618,0.7654,0.762,0.762,0.762,0.762,0.7621,0,0.7363,0.738,0.739,0.7412,0.7421,0.7441,0.7459,0.7465,0.7474,0.7491,0.7503,0.7516,0.7528,0.7553,0.7567,0.7569,0.7578,0.7571,0.7571,0.7574,0.7608,0.7609,0.7563,0.7563,0.7563,0.7563,0.7563,0.7563,0.734,0.7343,0.7359,0.737,0.7387,0.7397,0.7406,0.7419,0.7434,0.7448,0.7459,0.7475,0.7495,0.7512,0.7524,0.7531,0.7535,0.7525,0.7534,0.7566,0.7571,0.7576,0.7577,0.7525,0.7525,0.7499,0.7499,0.7499]}]]